TimeCAT,TemperatureF,Dew PointF,Humidity,Sea Level PressureIn,VisibilityMPH,Wind Direction,Wind SpeedMPH,Gust SpeedMPH,PrecipitationIn,Events,Conditions,WindDirDegrees,DateUTC
12:00 AM,60.8,39.2,45,30.36,-9999.0,ESE,15.0,-,N/A,,Clear,120,2013-07-31 22:00:00
1:00 AM,59.0,39.2,48,30.36,-9999.0,ESE,11.5,-,N/A,,Clear,120,2013-07-31 23:00:00
2:00 AM,57,40,43,,6,ESE,11.5,,,,Partly Cloudy,120,2013-08-01 00:00:00
3:00 AM,55.4,41.0,58,30.36,-9999.0,ESE,11.5,-,N/A,,Clear,120,2013-08-01 01:00:00
4:00 AM,55.4,41.0,58,30.36,-9999.0,ESE,8.1,-,N/A,,Clear,110,2013-08-01 02:00:00
5:00 AM,53.6,41.0,62,30.36,-9999.0,ESE,9.2,-,N/A,,Clear,110,2013-08-01 03:00:00
6:00 AM,51.8,39.2,62,30.36,-9999.0,ESE,10.4,-,N/A,,Clear,110,2013-08-01 04:00:00
7:00 AM,50.0,39.2,66,30.39,-9999.0,ESE,6.9,-,N/A,,Clear,120,2013-08-01 05:00:00
8:00 AM,53,39,49,,6,ESE,12.7,,,,Partly Cloudy,120,2013-08-01 06:00:00
8:00 AM,51.8,39.2,62,30.42,-9999.0,ESE,12.7,-,N/A,,Clear,120,2013-08-01 06:00:00
9:00 AM,57.2,39.2,51,30.42,-9999.0,ESE,12.7,-,N/A,,Clear,110,2013-08-01 07:00:00
10:00 AM,60.8,39.2,45,30.42,-9999.0,East,13.8,-,N/A,,Clear,100,2013-08-01 08:00:00
11:00 AM,64.4,39.2,40,30.42,-9999.0,East,10.4,-,N/A,,Clear,100,2013-08-01 09:00:00
12:00 PM,68.0,39.2,35,30.39,-9999.0,East,10.4,-,N/A,,Clear,90,2013-08-01 10:00:00
1:00 PM,71.6,37.4,29,30.36,-9999.0,East,11.5,-,N/A,,Clear,100,2013-08-01 11:00:00
2:00 PM,73,35,15,,6,Calm,Calm,,,,Partly Cloudy,60,2013-08-01 12:00:00
2:00 PM,73.4,35.6,25,30.30,-9999.0,ENE,6.9,-,N/A,,Clear,60,2013-08-01 12:00:00
3:00 PM,73.4,33.8,23,30.27,6.2,SE,4.6,-,N/A,,Partly Cloudy,140,2013-08-01 13:00:00
4:00 PM,73.4,33.8,23,30.27,6.2,South,6.9,-,N/A,,Partly Cloudy,170,2013-08-01 14:00:00
5:00 PM,73.4,33.8,23,30.27,-9999.0,South,6.9,-,N/A,,Clear,180,2013-08-01 15:00:00
6:00 PM,69.8,35.6,28,30.30,-9999.0,SE,5.8,-,N/A,,Clear,130,2013-08-01 16:00:00
7:00 PM,66.2,32.0,28,30.30,6.2,South,4.6,-,N/A,,Partly Cloudy,170,2013-08-01 17:00:00
8:00 PM,64,33,20,,6,SSE,8.1,,,,Scattered Clouds,160,2013-08-01 18:00:00
8:00 PM,64.4,32.0,30,30.33,6.2,SSE,3.5,-,N/A,,Partly Cloudy,160,2013-08-01 18:00:00
9:00 PM,60.8,33.8,36,30.36,-9999.0,SSE,8.1,-,N/A,,Clear,160,2013-08-01 19:00:00
11:00 PM,59.0,32.0,36,30.36,-9999.0,SE,6.9,-,N/A,,Clear,140,2013-08-01 21:00:00